Deer Park, WA
on Friday, November 9, 2012

Friday
Previous Day Next Day
Daily Summary
 ActualAverageRecord
Temperature
Mean Temperature °F 36°F  
Max Temperature 32°F 45°F 50°F (2001)
Min Temperature 25°F 28°F 23°F (2005)
Degree Days
Heating Degree Days 36 29  
Month to date heating degree days 199 249  
Since 1 July heating degree days 1111 1317  
Cooling Degree Days 0 0  
Month to date cooling degree days 0 0  
Year to date cooling degree days 232 187  
Moisture
Dew Point 28°F   
Average Humidity 92    
Maximum Humidity 100    
Minimum Humidity 84    
Precipitation
Precipitation 0.17 in 0.10 in 0.28 in (2006)
Month to date precipitation 0.47 0.92  
Year to date precipitation 20.47 16.98  
Wind
Wind Speed 9 mph   
Max Wind Speed 14 mph   
Max Gust Speed 18 mph   
Visibility 4 miles   
Events Snow   

Key: T is trace of precipitation, MM is missing value
Source: NWS Daily Summary
Time(PST)TemperatureDew PointHumidity Pressure Visibility Wind DirectionWind SpeedGust SpeedPrecipitationEvents Conditions
12:02 AM 32.0°F 30.2°F 93% 29.73 in 1.5 miles NE 8.1 mph - 0.00 in Snow Light Snow
12:32 AM 32.0°F 30.2°F 93% 29.73 in 1.5 miles NE 9.2 mph - 0.01 in Snow Light Snow
12:45 AM 30.2°F 30.2°F 100% 29.73 in 2.5 miles NNE 6.9 mph - 0.01 in Snow Light Snow
12:53 AM 30.9°F 30.0°F 96% 29.77 in 2.0 miles NNE 6.9 mph - 0.01 in Snow Light Snow
1:21 AM 30.2°F 30.2°F 100% 29.73 in 1.0 miles NE 9.2 mph - 0.01 in Snow Light Snow
1:53 AM 30.9°F 30.0°F 96% 29.78 in 1.0 miles NNE 11.5 mph - 0.03 in Snow Light Snow
2:01 AM 30.2°F 30.2°F 100% 29.74 in 0.8 miles NNE 11.5 mph - 0.00 in Snow Light Snow
2:12 AM 30.2°F 30.2°F 100% 29.74 in 1.2 miles NNE 12.7 mph - 0.01 in Snow Light Snow
2:35 AM 30.2°F 30.2°F 100% 29.75 in 1.8 miles NNE 6.9 mph - 0.02 in Snow Light Snow
2:42 AM 30.2°F 30.2°F 100% 29.75 in 2.0 miles North 8.1 mph - 0.02 in Snow Light Snow
2:50 AM 30.2°F 30.2°F 100% 29.75 in 1.8 miles North 5.8 mph - 0.03 in Snow Light Snow
2:53 AM 30.9°F 30.0°F 96% 29.80 in 2.5 miles North 6.9 mph - 0.03 in Snow Light Snow
3:03 AM 30.2°F 30.2°F 100% 29.75 in 4.0 miles North 6.9 mph - 0.00 in Snow Light Snow
3:53 AM 30.9°F 28.9°F 92% 29.81 in 2.0 miles NNE 8.1 mph - 0.01 in Snow Light Snow
3:59 AM 30.2°F 28.4°F 93% 29.76 in 1.8 miles NNE 9.2 mph - 0.00 in Snow Light Snow
4:17 AM 30.2°F 28.4°F 93% 29.76 in 2.5 miles NNE 9.2 mph - 0.01 in Snow Light Snow
4:27 AM 30.2°F 28.4°F 93% 29.76 in 5.0 miles NNE 8.1 mph - 0.01 in Snow Light Snow
4:53 AM 30.0°F 28.9°F 96% 29.82 in 3.0 miles NNE 6.9 mph - 0.01 in Snow Light Snow
4:57 AM 30.2°F 28.4°F 93% 29.76 in 2.5 miles NNE 8.1 mph - 0.00 in Snow Light Snow
5:09 AM 30.2°F 28.4°F 93% 29.76 in 1.5 miles NNE 5.8 mph - 0.01 in Snow Light Snow
5:20 AM 30.2°F 28.4°F 93% 29.77 in 1.5 miles NNE 8.1 mph - 0.01 in Snow Light Snow
5:32 AM 30.2°F 28.4°F 93% 29.77 in 2.0 miles NNE 6.9 mph - 0.02 in Snow Light Snow
5:46 AM 30.2°F 28.4°F 93% 29.77 in 1.8 miles NE 5.8 mph - 0.02 in Snow Light Snow
5:53 AM 30.0°F 28.9°F 96% 29.83 in 2.0 miles NNE 8.1 mph - 0.02 in Snow Light Snow
6:08 AM 30.2°F 28.4°F 93% 29.77 in 1.2 miles NE 10.4 mph - 0.01 in Snow Light Snow
6:16 AM 30.2°F 28.4°F 93% 29.77 in 1.0 miles NE 9.2 mph - 0.02 in Snow Light Snow
6:23 AM 30.2°F 28.4°F 93% 29.77 in 0.8 miles NE 8.1 mph - 0.03 in Snow Light Snow
6:38 AM 30.2°F 28.4°F 93% 29.78 in 0.8 miles NNE 8.1 mph - 0.04 in Snow Light Snow
6:46 AM 30.2°F 28.4°F 93% 29.78 in 1.2 miles NE 9.2 mph - 0.04 in Snow Light Snow
6:53 AM 30.0°F 28.9°F 96% 29.84 in 1.2 miles NE 11.5 mph - 0.05 in Snow Light Snow
7:00 AM 30.2°F 28.4°F 93% 29.78 in 1.2 miles NE 12.7 mph - 0.00 in Snow Light Snow
7:36 AM 30.2°F 28.4°F 93% 29.79 in 1.0 miles NE 11.5 mph - 0.01 in Snow Light Snow
7:53 AM 30.0°F 28.9°F 96% 29.85 in 1.8 miles NE 10.4 mph - 0.01 in Snow Light Snow
8:04 AM 30.2°F 28.4°F 93% 29.80 in 2.5 miles NNE 10.4 mph - 0.00 in Snow Light Snow
8:11 AM 30.2°F 28.4°F 93% 29.80 in 5.0 miles NNE 11.5 mph - 0.00 in Snow Light Snow
8:53 AM 30.0°F 28.0°F 92% 29.86 in 10.0 miles NNE 9.2 mph - 0.00 in   Overcast
9:44 AM 30.2°F 28.4°F 93% 29.81 in 10.0 miles NE 8.1 mph - N/A   Overcast
9:53 AM 30.9°F 28.0°F 89% 29.87 in 10.0 miles NE 9.2 mph - N/A   Overcast
10:51 AM 30.2°F 26.6°F 86% 29.82 in 7.0 miles NE 11.5 mph - 0.00 in Snow Light Snow
10:53 AM 30.0°F 27.0°F 88% 29.88 in 7.0 miles NE 11.5 mph - 0.00 in Snow Light Snow
11:53 AM 30.0°F 28.0°F 92% 29.88 in 3.0 miles NE 10.4 mph - 0.00 in Snow Light Snow
12:53 PM 30.9°F 28.0°F 89% 29.88 in 6.0 miles NE 5.8 mph - 0.00 in   Overcast
1:07 PM 30.2°F 28.4°F 93% 29.82 in 9.0 miles NE 8.1 mph - N/A   Overcast
1:53 PM 30.0°F 27.0°F 88% 29.88 in 10.0 miles NE 9.2 mph - N/A   Overcast
2:53 PM 30.0°F 26.1°F 85% 29.89 in 10.0 miles NE 13.8 mph - N/A   Overcast
3:53 PM 28.9°F 26.1°F 89% 29.90 in 10.0 miles NNE 9.2 mph - N/A   Overcast
4:53 PM 28.9°F 26.1°F 89% 29.91 in 10.0 miles NE 10.4 mph - N/A   Overcast
5:53 PM 28.0°F 25.0°F 88% 29.92 in 10.0 miles NE 9.2 mph - N/A   Overcast
6:53 PM 26.1°F 23.0°F 88% 29.93 in 10.0 miles NNE 8.1 mph - N/A   Mostly Cloudy
7:53 PM 26.1°F 23.0°F 88% 29.93 in 10.0 miles NNE 8.1 mph - N/A   Overcast
8:53 PM 26.1°F 24.1°F 92% 29.94 in 10.0 miles North 6.9 mph - N/A   Overcast
9:53 PM 28.0°F 25.0°F 88% 29.94 in 10.0 miles NNE 10.4 mph - N/A   Overcast
10:53 PM 27.0°F 24.1°F 89% 29.94 in 10.0 miles NNE 11.5 mph - N/A   Overcast
11:53 PM 27.0°F 23.0°F 85% 29.95 in 10.0 miles NE 10.4 mph - N/A   Overcast
Moon Phase
Nov. 09 Nov. 13 Nov. 20 Nov. 28 Dec. 06
Sunrise:06:47 AM (PST) Moon Rise:01:31 AM (PST)11/9
Sunset:04:18 PM (PST) Moon Set:01:51 PM (PST)11/9

Copyright © 2014 The Weather Underground, Inc.